Find Starlink 3204

NORAD ID: 49759 Int'l Des: 2021-115 Owner: SPXS Country: US Constellation: starlink operational
LEOCIRCULAR

Current View

Loading 3D Globe...

About Starlink 3204

Description loading...

Upcoming Passes

Passes for default location (London). Set your location on the main map for personalized predictions.

Altitude History

Loading altitude history...

Two-Line Element Set

1 49759U 21115AM 26151.15229285 .00000648 00000-0 58771-4 0 9993
2 49759 53.1935 128.9238 0001259 44.3398 315.7695 15.08838175248122
Epoch: May 31, 2026 • Age: 7 hours

Current Status

Altitude 552.0 km
Velocity 7.59 km/s
Sub-Earth Point -35.61°S, 74.4°W
Launch Date Dec 2, 2021
Age 4.4 years
Type internet

Technical Details

Classification Payload
Mass 290.00 kg
Dry Mass 270.00 kg
Total Mass 290.00 kg
Length 0.20 m
Diameter 2.80 m
Span 9.00 m
Shape Box + pan
Manufacturer SPXS
Bus Type Starlink
Phase Status In Orbit
Owner/State SPXS/US

Most Searched